Location: Unnamed
(48.6007°N, 2.4808°E)
Time: 20:23:59
(UTC+02:00)

METEOR M2 - Pass Details

Date: 27 March 2023
Orbit: 818 x 827 km, 98.4° (Epoch: 01 June)

Event Time Altitude Azimuth Distance (km) Brightness Sun altitude
Rises 21:04:56 0° 224° (SW) 3,357 ? -9.3°
Reaches altitude 10° 21:09:16 10° 258° (WSW) 2,433 ? -10.0°
Maximum altitude 21:10:54 11° 276° (W) 2,344 ? -10.2°
Drops below altitude 10° 21:12:32 10° 294° (WNW) 2,438 ? -10.5°
Sets 21:16:55 0° 328° (NNW) 3,379 ? -11.2°
